Back to catalog

COSMOS 2251 DEB

AliveLEO
NORAD 35585·DEBRIS·🇷🇺 Russia

Launched Jun 16, 1993 from Plesetsk Cosmodrome

Loading…

Next Passes (next 24 hours)

TLE

AgingSource: Space-Track

Epoch: Sep 12, 2026, 10:18 UTC

1 35585U 93036AMC 26255.42946152  .00000845  00000-0  63602-3 0  9997
2 35585  73.9682 251.1412 0303165 107.2134  40.8506 13.76072632678275

Track COSMOS 2251 DEB in real time with AllMySat

Download on the App Store